This demonstration page uses our WeatherBlox Daily Observations layout. Learn more.

Left ArrowRight Arrow

Hourly Observations for September 10, 2015

Temp ( °F °C ) Dew Point ( °F °C ) Humidity (%) Winds ( mph kmh ) Pressure ( in mb ) Visibility ( mi km ) Precip ( " mm )
12:53 am 00:53 Clear 64 17.8 58 14.4 81 81 ESE 9 15 29.93 1014 10 16 0.00 0.00
1:53 am 01:53 Clear 64 17.8 58 14.4 81 81 SSE 10 17 29.93 1013 10 16 0.00 0.00
2:53 am 02:53 Clear 62 16.7 55 12.8 78 78 S 9 15 29.92 1013 10 16 0.00 0.00
3:53 am 03:53 Clear 60 15.6 55 12.8 84 84 SSW 5 7 29.92 1013 10 16 0.00 0.00
4:53 am 04:53 Clear 58 14.4 54 12.2 87 87 SSW 5 7 29.92 1013 10 16 0.00 0.00
5:53 am 05:53 Clear 60 15.6 55 12.8 84 84 Calm 29.93 1013 10 16 0.00 0.00
6:53 am 06:53 Clear 55 12.8 52 11.1 90 90 NNE 5 7 29.95 1014 10 16 0.00 0.00
7:53 am 07:53 Sunny 57 13.9 54 12.2 90 90 N 5 7 29.99 1016 10 16 0.00 0.00
8:53 am 08:53 Sunny 63 17.2 57 13.9 81 81 NNE 5 7 29.98 1015 10 16 0.00 0.00
9:53 am 09:53 Sunny 68 20 59 15 73 73 VRB 3 6 29.99 1016 10 16 0.00 0.00
11:53 am 11:53 Sunny 76 24.4 62 16.7 62 62 NNE 8 13 29.97 1015 10 16 0.00 0.00
12:53 pm 12:53 Sunny 80 26.7 61 16.1 52 52 ENE 10 17 29.94 1014 10 16 0.00 0.00
1:53 pm 13:53 Sunny with Nearby Thunderstorms 78 25.6 60 15.6 54 54 E 13 20 29.89 1012 10 16 0.00 0.00
2:03 pm 14:03 Mostly Cloudy with Thunderstorms 77 25 63 17 61 61 NE 5 7 29.88 1012 7 11 0.00 0.00
2:14 pm 14:14 Mostly Cloudy with Strong Thunderstorms 73 23 64 18 74 74 ENE 13 20 29.88 1012 2 3 0.00 0.00
2:23 pm 14:23 Cloudy with Thunderstorms 73 22.8 65 18.3 76 76 NNE 12 19 29.88 1012 10 16 0.15 3.81
2:44 pm 14:44 Mostly Cloudy with Nearby Thunderstorms 72 22 66 19 83 83 NE 10 17 29.91 1013 10 16 0.00 0.00
2:53 pm 14:53 Mostly Cloudy 73 22.8 66 18.9 79 79 ENE 10 17 29.93 1014 10 16 0.15 3.81
3:20 pm 15:20 Cloudy with Nearby Thunderstorms 73 23 64 18 74 74 ESE 8 13 29.88 1012 10 16 0.00 0.00
3:53 pm 15:53 Cloudy with Thunderstorms 72 22.2 65 18.3 79 79 N 12 19 29.96 1015 10 16 0.00 0.00
4:10 pm 16:10 Mostly Cloudy with Nearby Thunderstorms 73 23 63 17 69 69 NE 18 30 29.85 1011 10 16 0.00 0.00
4:41 pm 16:41 Mostly Cloudy 72 22.2 58 14.4 61 61 E 10 17 29.85 1011 10 16 0.00 0.00
4:53 pm 16:53 Cloudy 70 21.1 59 15 68 68 ENE 10 17 29.92 1013 10 16 0.00 0.00
5:05 pm 17:05 Cloudy with Thunderstorms 69 20.6 59 15 70 70 NNE 8 13 29.91 1013 10 16 0.00 0.00
5:18 pm 17:18 Cloudy with Strong Thunderstorms 66 19 61 16 83 83 NW 15 24 29.94 1014 2 3 0.00 0.00
5:27 pm 17:27 Cloudy with Thunderstorms 66 19 63 17 88 88 NE 15 24 29.91 1013 1 2 0.00 0.00
5:30 pm 17:30 Cloudy with Thunderstorms 66 19 63 17 88 88 NNE 13 20 29.91 1013 3 5 0.00 0.00
5:39 pm 17:39 Mostly Cloudy with Thunderstorms 66 19 64 18 94 94 NNE 12 19 29.91 1013 7 11 0.00 0.00
5:53 pm 17:53 Mostly Cloudy with Light Rain 66 18.9 62 16.7 87 87 NNE 14 22 29.94 1014 10 16 0.23 5.84
6:53 pm 18:53 Mostly Cloudy with Light Rain 64 17.8 59 15 84 84 NE 13 20 29.99 1016 10 16 0.00 0.03
7:53 pm 19:53 Clear 64 17.8 58 14.4 81 81 ENE 9 15 30.00 1016 10 16 0.00 0.03
8:53 pm 20:53 Mostly Clear 61 16.1 57 13.9 87 87 NE 6 9 30.04 1017 10 16 0.00 0.00
9:53 pm 21:53 Mostly Cloudy 61 16.1 56 13.3 84 84 NNE 5 7 30.05 1018 10 16 0.00 0.00
10:53 pm 22:53 Clear 58 14.4 55 12.8 90 90 Calm 30.07 1018 10 16 0.00 0.00
11:53 pm 23:53 Clear 58 14.4 55 12.8 90 90 N 6 9 30.07 1018 10 16 0.00 0.00

Powered by AerisWeather